Tracking 30260 objects as of 14-Feb-2025
HD Live streaming from Space Station
objects crossing your sky now

NOAA 17 DEB

Track NOAA 17 DEB now!
10-day predictions


NORAD ID: 48753
Int'l Code: 2002-032CP
Perigee: 727.1 km
Apogee: 760.8 km
Inclination: 98.7 °
Period: 99.5 minutes
Semi major axis: 7114 km
RCS: Unknown
Launch date: June 24, 2002
Source: United States (US)
Launch site: AIR FORCE WESTERN TEST RANGE (AFWTR)

Note: This is SATELLITE DEBRIS
Your satellite tracking list
Your tracking list is empty




NASA's NSSDC Master Catalog

Two Line Element Set (TLE):
1 48753U 02032CN  25044.34320032  .00013491  00000-0  37341-2 0  9994
2 48753  98.7239  10.0752 0023674 227.4615 132.4577 14.46589814202510
Source of the keplerian elements: AFSPC